Find Kosmos-2390

NORAD ID: 27464 Int'l Des: 2002-036 Owner: KVR Country: RU operational
LEOCIRCULARPOLAR

Live Position

Loading 3D Globe...

About Kosmos-2390

Description loading...

Upcoming Passes

Passes for default location (London). Set your location on the main map for personalized predictions.

Altitude History

Loading altitude history...

Two-Line Element Set

1 27464U 02036A 26104.53776655 .00000018 00000-0 57369-4 0 9994
2 27464 82.4881 24.7501 0026490 39.0525 321.2462 12.44621303 79754
Epoch: Apr 14, 2026 • Age: 5 hours

Current Status

Altitude 1527.5 km
Velocity 7.09 km/s
Sub-Earth Point -52.29°S, 101.31°E
Launch Date Jul 8, 2002
Age 23.7 years
Type other

Technical Details

Classification Payload
Mass 225.00 kg
Dry Mass 225.00 kg
Total Mass 225.00 kg
Length 1.60 m
Diameter 0.80 m
Span 7.00 m
Shape Cyl + Ant
Manufacturer NPOPMR
Bus Type Strela-3
Phase Status In Orbit
Owner/State KVR/RU

Most Searched